Theta_e
299 289 285 285 288 290 292 293 293 292 291 290 289 289 286 286 287 290 293 297 299 293 291 290 285 281 281 282 282 281 282 282 280 278 278 277 277 277 276 276 276 275 274 276 277 277 277 279 279 280 280 279 279 279 279 278 279 279 279 279 278 279 280 281 280 281 281 280 280 281 281 280 280 282 282 281 281 281 281 281 281 281 281 280 280 282
296 286 287 290 291 292 292 293 293 292 291 289 286 285 284 288 283 290 290 295 297 292 283 284 282 281 281 281 281 282 280 279 278 278 278 277 277 277 276 275 275 275 276 276 276 276 277 277 279 279 278 279 277 278 278 277 278 278 278 278 278 279 279 280 281 280 281 281 280 280 279 280 280 280 280 279 280 281 281 281 280 280 280 280 279 281
285 284 288 289 291 293 294 292 292 291 289 288 284 282 282 282 285 289 290 293 294 291 283 285 282 280 280 279 280 280 279 280 280 280 279 277 275 275 275 275 274 274 274 274 274 276 276 277 278 277 278 278 277 277 277 277 277 277 277 277 278 278 278 279 281 281 280 281 282 281 280 280 280 281 281 280 281 281 280 280 280 280 280 280 279 279
281 286 287 289 290 291 291 291 290 289 288 284 283 281 279 283 282 279 284 289 292 288 283 284 283 281 279 278 278 279 279 280 280 279 280 278 276 275 275 274 274 273 273 273 274 274 275 276 276 276 277 277 277 276 276 276 276 277 278 277 277 277 278 278 280 282 281 282 282 283 282 281 280 279 282 280 280 280 280 279 280 280 279 279 279 278
283 286 289 289 290 289 288 289 288 284 282 284 285 283 281 282 282 283 282 287 287 288 286 285 281 281 277 274 274 278 280 278 276 276 275 276 278 278 277 276 275 273 273 273 273 274 274 275 275 276 276 276 275 276 275 276 276 277 276 277 277 277 277 277 279 279 280 280 280 280 280 281 280 279 278 277 277 278 279 279 278 278 279 279 279 278
285 286 287 288 288 288 287 284 285 285 280 281 286 286 285 284 282 283 284 283 278 279 285 284 275 277 278 276 276 276 276 275 276 274 274 274 275 276 274 274 275 275 274 273 273 274 274 274 275 275 275 275 275 276 276 275 277 276 276 276 276 276 276 277 277 279 279 279 278 277 277 276 276 275 275 275 275 276 276 276 278 278 279 279 278 278
283 288 287 286 287 286 286 284 287 287 281 280 281 285 287 286 283 283 282 281 275 275 283 287 277 274 274 275 276 273 273 274 275 274 274 274 274 274 274 274 274 274 273 274 274 274 274 274 274 274 274 275 275 276 277 277 277 277 276 276 276 276 276 277 277 277 279 277 277 277 277 276 275 274 275 276 276 276 277 277 277 277 278 278 278 277
285 286 283 285 286 284 282 281 284 286 282 279 283 285 287 286 282 282 283 281 278 284 284 285 281 274 276 276 275 273 272 273 274 274 275 274 274 273 273 274 273 273 273 272 273 273 274 274 274 273 274 274 275 276 276 277 277 276 275 275 275 276 277 276 276 276 278 276 276 276 276 277 275 275 274 275 276 276 277 276 276 276 277 277 277 277
280 281 282 282 283 282 281 281 281 284 283 281 284 286 285 286 285 283 281 279 279 279 276 280 281 276 275 273 274 274 271 273 274 274 274 275 274 274 273 273 273 273 273 273 273 273 273 273 273 274 274 275 275 276 276 276 276 276 276 276 275 275 275 275 276 276 276 278 276 275 275 274 276 276 276 276 276 275 276 274 275 275 276 276 276 276
282 281 281 281 281 280 280 280 280 282 282 285 286 287 286 285 284 284 281 280 278 277 274 276 281 274 276 273 273 272 272 274 275 276 276 276 274 274 273 272 273 273 273 273 273 273 273 274 274 274 274 274 275 276 277 276 276 276 275 275 274 273 274 274 274 275 275 275 276 274 274 273 273 274 274 274 273 273 274 273 274 274 274 275 275 275
278 285 286 282 280 280 279 281 283 282 285 286 285 283 280 280 281 281 282 280 277 273 275 277 279 277 272 275 274 272 274 277 278 277 277 276 275 274 274 272 272 272 273 273 273 273 273 274 274 274 273 274 275 275 276 276 276 275 275 274 273 273 273 274 274 274 274 274 274 274 273 273 272 273 272 272 272 272 272 272 272 273 273 274 274 274
278 281 280 281 283 282 282 282 284 284 285 284 280 279 279 278 280 279 277 280 273 271 275 275 278 279 271 275 275 278 279 280 279 278 277 276 274 274 273 273 273 273 273 273 272 272 272 273 273 274 273 274 274 275 275 275 275 275 274 273 272 272 273 273 273 273 273 273 273 273 273 273 272 272 272 271 271 271 271 271 271 272 272 272 273 273
275 277 280 280 283 281 281 280 281 281 282 281 280 278 274 272 274 269 274 270 271 270 273 273 276 276 277 280 279 277 277 278 281 280 279 277 274 274 273 273 272 273 272 272 272 272 272 272 272 272 273 273 273 274 274 274 274 274 273 272 272 272 272 272 273 272 272 272 272 272 272 272 274 272 272 271 271 271 271 271 271 271 270 271 271 271
277 277 278 280 280 282 280 277 277 275 279 279 278 277 273 270 270 268 271 273 273 274 273 273 277 272 277 278 277 276 274 275 275 278 280 277 275 274 272 272 271 272 272 272 272 272 272 272 272 273 273 273 273 274 274 273 273 272 272 272 272 272 272 273 272 272 272 272 272 272 272 272 272 272 272 271 270 271 270 271 270 270 270 270 270 270
274 273 275 276 276 279 279 278 276 275 278 279 281 279 276 274 270 268 271 269 271 272 274 276 272 269 271 274 272 273 274 274 275 277 277 276 275 274 273 272 271 271 272 272 272 272 272 272 273 273 273 273 273 273 273 272 272 272 272 272 272 271 272 272 272 272 271 271 271 271 271 271 272 271 271 271 272 270 270 270 270 270 270 270 270 270
275 274 274 276 277 277 278 279 280 277 277 280 280 281 275 273 277 269 272 270 271 273 271 273 272 276 275 273 273 273 274 274 275 276 276 274 274 273 272 271 271 271 271 272 272 272 273 273 274 274 274 273 273 272 271 271 271 271 271 271 271 271 271 272 272 271 271 271 271 271 270 271 272 272 272 271 272 270 270 270 270 269 269 270 269 270
275 272 272 278 278 274 274 277 279 279 272 279 280 274 275 277 276 273 272 272 271 271 269 277 274 277 273 272 272 272 272 273 274 274 273 273 272 272 271 271 271 271 271 272 272 272 273 274 274 274 274 273 272 271 271 271 271 271 271 271 271 271 271 271 271 271 271 270 270 270 270 270 270 269 269 269 269 269 270 270 269 269 269 270 270 271
271 272 270 275 274 275 276 276 277 277 277 276 274 277 279 280 278 274 269 271 270 269 271 274 271 274 272 271 271 271 271 272 273 273 273 273 272 271 271 271 271 271 271 272 273 273 274 274 274 273 273 272 271 271 271 271 271 271 271 271 270 270 270 270 270 270 270 270 269 269 269 269 269 269 269 269 269 269 269 269 269 269 269 268 269 270
276 270 271 270 274 276 278 277 276 279 279 276 275 276 273 272 271 275 273 266 267 268 269 272 274 274 275 274 268 270 271 272 272 273 272 271 271 271 271 271 271 271 271 271 272 272 273 273 272 272 271 272 272 272 271 270 270 270 270 270 270 269 269 269 270 270 269 270 269 270 269 269 269 269 269 270 269 269 268 268 268 268 268 268 269 269
276 269 270 271 274 275 273 274 269 272 276 279 278 276 277 275 271 272 274 274 273 268 270 270 272 270 278 276 273 273 273 273 272 272 272 271 272 272 272 271 271 271 271 271 272 272 272 272 272 272 271 271 271 270 270 270 270 269 270 270 269 269 269 269 269 270 268 269 269 269 269 269 269 269 269 269 268 268 267 267 268 267 267 268 269 268
274 275 268 269 271 273 270 273 271 273 271 271 273 272 274 272 277 276 275 272 272 270 270 269 267 271 275 272 272 274 275 275 273 273 273 273 272 273 272 272 272 272 271 272 272 272 272 272 272 272 271 271 271 271 270 270 269 269 269 269 269 268 268 268 268 268 268 268 268 269 268 268 268 268 268 268 268 267 267 267 268 266 267 267 267 268
272 272 269 269 268 268 272 267 269 268 270 270 272 273 275 272 271 269 268 276 272 272 268 269 267 274 272 273 273 272 275 275 274 274 274 273 273 273 273 272 272 272 272 272 272 272 272 272 272 271 271 271 270 270 269 270 269 269 269 269 269 268 268 268 268 268 268 268 267 267 268 268 267 267 267 267 268 267 267 266 266 266 267 266 266 267
272 273 271 269 269 269 270 270 269 271 268 269 269 270 270 271 274 272 267 271 272 272 273 270 268 272 271 272 272 272 273 274 275 275 274 274 273 274 273 273 273 272 272 272 272 272 272 272 271 271 271 270 270 270 269 270 269 269 269 269 268 268 268 268 268 268 268 268 267 267 267 267 267 267 267 267 267 266 266 266 266 267 266 266 266 267
280 269 268 270 268 266 269 271 268 265 267 269 269 269 269 270 272 272 272 271 268 271 268 269 267 272 272 273 272 272 272 273 275 275 274 274 274 274 273 273 272 272 272 272 272 272 272 272 271 271 270 270 270 269 269 269 269 269 269 269 268 268 268 268 268 268 267 267 267 267 267 267 267 266 266 266 266 265 266 265 266 266 265 266 266 265
267 269 269 266 265 266 264 267 266 266 266 265 266 269 268 268 265 267 266 268 267 270 271 268 265 271 270 272 272 272 272 272 274 273 275 274 274 274 274 273 273 272 272 271 271 271 271 271 271 271 270 270 270 270 270 269 269 269 269 269 268 268 268 268 268 268 267 267 267 267 267 267 267 266 266 266 266 265 265 265 265 265 265 265 265 265
268 268 269 263 261 259 259 260 263 263 263 265 266 265 264 267 267 266 265 268 265 271 271 268 269 274 268 271 271 271 271 271 273 274 274 274 274 274 274 273 272 272 272 271 271 271 271 271 271 271 270 270 270 270 270 270 269 269 269 269 269 268 268 268 268 267 267 267 267 267 267 266 266 266 266 266 266 265 265 265 265 264 264 265 264 265
267 267 265 266 265 266 264 263 263 264 264 262 264 266 265 265 267 267 267 266 267 270 269 271 272 273 270 269 268 270 270 270 271 272 274 274 274 274 274 273 273 272 272 272 271 271 271 271 270 270 270 270 270 270 270 270 269 269 269 269 269 268 268 268 268 267 267 267 267 266 266 266 266 266 265 265 265 265 265 264 265 264 264 264 264 263
267 263 265 263 263 262 260 261 262 263 262 266 266 264 266 265 265 265 266 266 271 267 265 272 272 270 274 274 269 270 270 270 271 272 273 274 274 274 273 273 276 272 272 272 272 271 271 271 271 270 270 270 270 270 270 270 270 269 269 268 269 268 268 268 268 267 267 267 266 266 266 266 266 265 265 265 265 265 264 264 264 264 264 264 263 263
265 263 260 261 261 257 259 260 259 259 261 262 263 263 264 266 265 264 265 269 267 267 267 267 266 270 274 273 274 272 272 272 273 273 273 274 273 273 273 273 273 273 273 272 272 271 271 271 271 270 270 271 270 270 270 270 269 269 269 269 268 268 268 268 267 267 267 267 266 266 266 266 266 265 265 265 265 264 264 264 264 264 264 264 263 264
264 266 258 259 258 258 258 259 257 258 261 260 261 262 264 265 266 266 266 267 267 268 270 271 270 269 273 271 271 272 273 273 273 273 273 273 274 273 273 273 273 273 273 272 272 272 271 271 271 271 271 271 270 270 270 270 269 269 269 268 268 268 268 268 267 267 267 266 266 266 266 266 265 265 264 264 264 264 263 263 263 263 263 263 263 263
266 265 264 259 259 261 257 258 259 259 259 258 262 262 263 263 264 266 266 267 267 267 269 269 268 269 274 275 272 272 274 274 273 273 273 273 273 273 273 273 273 273 273 273 272 272 272 271 271 271 271 271 270 270 270 270 269 269 269 269 268 268 268 268 267 267 266 266 267 267 266 265 265 265 264 264 264 264 263 263 263 263 263 263 263 263
263 261 259 261 259 258 255 256 259 260 259 258 259 260 262 262 261 263 263 267 266 266 267 266 266 267 272 274 275 272 273 273 272 273 272 273 273 274 273 273 273 273 273 273 273 272 272 272 271 271 271 271 271 270 270 270 269 269 269 269 268 268 268 267 267 267 266 266 267 266 266 265 265 265 264 264 264 263 263 263 263 263 262 263 262 263
262 262 260 261 259 258 255 255 256 256 257 258 261 263 263 264 265 266 267 268 269 269 266 264 266 272 273 273 273 271 272 273 273 273 273 273 273 273 273 273 273 273 273 273 273 273 272 272 272 272 271 271 271 271 271 270 270 269 269 269 269 268 268 267 267 266 266 267 266 266 266 265 265 265 264 264 264 263 263 262 262 262 262 262 262 262
261 262 262 263 258 258 253 254 256 257 257 260 262 263 267 264 264 264 265 267 268 270 269 271 272 272 271 271 271 270 271 272 273 274 275 274 273 273 273 273 273 274 274 273 273 273 272 273 272 272 272 272 272 272 271 271 270 270 270 269 269 268 267 267 266 266 266 266 266 266 266 265 265 264 264 264 263 263 262 262 262 262 262 262 262 262
261 262 262 262 260 259 254 255 257 255 258 263 262 265 266 267 267 266 267 268 269 270 271 270 272 272 272 271 270 271 272 272 273 273 273 274 274 274 274 274 273 274 274 274 273 273 273 273 272 272 272 272 272 272 271 271 270 270 269 269 268 267 266 266 266 265 266 265 266 265 265 265 264 263 263 263 262 261 261 261 261 262 262 262 262 261
262 262 262 261 261 261 258 258 251 257 263 264 265 266 267 266 267 265 264 267 269 270 270 270 271 272 273 273 272 271 270 270 270 270 271 272 274 274 273 273 274 274 274 274 274 273 273 273 273 273 272 273 272 272 271 271 270 269 268 268 268 266 266 265 265 265 265 265 265 265 265 264 263 263 262 262 261 261 262 261 261 261 262 261 261 261
263 263 263 259 261 256 258 258 261 264 265 267 262 263 264 263 263 263 261 266 270 270 270 270 271 272 272 272 272 269 269 269 268 269 271 271 272 273 274 275 275 274 274 274 274 274 274 274 273 273 273 272 272 271 271 270 269 268 267 266 266 265 265 265 264 264 264 264 264 264 264 264 263 262 261 261 261 260 260 261 260 260 260 259 261 261
266 262 262 259 258 262 258 256 257 257 255 260 265 266 268 268 268 267 264 263 268 271 272 271 271 271 270 270 269 268 267 266 266 268 271 272 272 273 273 272 273 273 274 274 274 273 274 273 273 273 273 271 271 271 270 269 268 267 266 265 265 264 264 264 264 264 264 264 264 264 263 263 262 261 261 260 260 260 260 260 260 260 260 260 259 259
262 263 259 259 260 258 257 254 254 252 258 264 265 265 267 268 268 266 263 261 267 268 270 272 270 270 270 269 268 267 263 262 265 267 270 271 271 271 271 271 271 271 272 273 273 272 272 272 272 272 271 270 268 268 268 267 267 266 265 265 264 264 263 263 263 264 264 264 264 263 263 262 262 261 261 260 260 260 260 259 259 259 259 258 258 258
258 260 260 258 255 258 256 256 256 257 260 263 265 266 267 267 266 265 259 260 266 268 268 271 271 270 270 269 267 266 267 263 265 268 268 269 270 271 270 269 268 269 269 269 269 270 270 270 269 267 267 267 267 266 266 266 266 265 265 264 264 263 263 263 264 264 264 263 263 262 262 262 261 261 260 260 260 259 259 259 258 258 257 257 258 257
256 257 260 258 258 261 262 258 259 261 266 266 266 267 267 266 265 259 259 265 267 269 269 270 270 271 270 267 268 265 268 268 268 268 269 269 269 268 269 269 267 266 266 266 267 270 266 265 267 267 266 266 265 264 264 265 264 264 263 263 263 263 263 263 263 263 263 263 262 262 261 261 261 260 260 260 259 259 258 258 258 258 257 257 257 256
257 257 259 258 258 258 259 258 259 261 267 266 267 267 267 264 258 259 267 263 265 268 269 270 271 271 270 269 268 268 268 268 268 269 268 268 267 266 266 265 264 263 262 264 266 264 262 262 262 262 262 261 263 263 263 264 264 263 262 262 262 263 262 263 263 263 262 262 262 261 261 260 260 260 260 259 259 258 257 257 257 257 256 255 255 256
260 258 256 257 258 258 258 256 255 254 261 266 266 265 263 262 264 266 265 262 265 268 270 270 271 271 270 268 268 267 265 266 266 266 265 265 263 264 263 263 262 262 261 260 261 262 262 262 262 262 262 260 260 262 263 263 262 261 261 262 263 262 262 262 262 262 262 261 261 260 260 260 259 259 259 258 258 257 256 256 255 254 254 255 254 254
263 258 258 258 261 256 256 255 258 264 263 267 269 264 264 269 266 264 266 266 266 265 269 269 269 271 270 269 268 265 265 265 266 264 265 265 264 263 261 261 260 260 259 259 260 261 261 261 260 260 259 259 259 260 262 263 262 262 261 262 261 260 260 261 261 261 260 260 260 259 259 259 258 258 257 257 256 256 255 255 254 254 254 254 253 253
266 264 262 261 264 262 260 263 265 263 264 268 269 268 265 268 265 264 264 266 267 267 267 268 270 270 270 270 269 268 265 265 264 265 265 264 263 263 262 262 262 262 261 261 261 261 261 262 262 261 259 259 258 259 260 261 262 262 261 261 261 262 260 260 259 259 259 259 259 258 258 257 257 257 256 256 256 255 254 253 253 253 253 253 253 253
259 261 259 263 264 266 268 267 265 262 262 266 269 266 266 265 264 263 266 265 268 268 268 268 269 269 269 269 268 266 267 266 264 264 264 264 264 263 262 262 260 260 259 259 259 261 261 260 259 259 260 258 258 258 259 260 261 261 263 260 261 261 260 259 258 258 258 258 258 257 256 256 255 255 255 254 255 254 254 253 253 252 252 253 253 253
262 260 263 261 262 262 260 264 268 269 265 264 267 269 267 265 266 263 263 266 265 265 266 265 264 265 266 266 266 267 266 265 264 264 263 263 263 263 264 263 262 263 262 262 261 261 260 259 260 260 260 261 259 258 259 258 260 261 262 260 260 260 259 259 259 258 258 257 257 256 256 255 255 254 254 252 253 253 253 253 252 252 252 252 251 251
262 262 262 263 261 262 264 264 263 263 264 266 267 267 269 269 268 266 268 265 264 263 263 263 263 264 265 264 265 266 266 266 265 265 264 265 264 264 263 264 263 262 262 262 260 260 258 259 260 260 260 262 262 260 259 259 259 260 260 257 259 258 258 257 257 257 257 257 257 256 256 255 255 255 254 253 253 252 252 252 252 252 252 252 253 252
262 266 261 262 262 264 266 267 269 267 264 266 266 267 269 270 269 267 266 266 264 263 262 262 261 262 263 264 264 264 264 264 264 265 264 264 263 264 264 264 262 262 262 262 260 260 261 260 260 261 261 262 261 260 260 259 259 259 258 259 258 257 257 257 256 257 256 256 256 256 256 255 255 255 254 253 253 253 253 253 253 252 252 254 253 253
264 261 261 262 260 260 263 266 264 262 263 266 268 269 269 269 269 268 264 263 264 265 264 263 262 260 261 262 263 263 264 264 263 264 263 263 263 263 264 263 263 262 262 261 260 259 259 259 260 260 261 262 260 259 260 259 260 259 258 257 257 257 257 257 256 255 255 255 256 256 255 255 255 254 254 254 253 253 253 255 256 255 253 253 256 257
266 266 265 263 263 264 268 268 268 269 267 269 268 268 267 267 267 267 267 266 265 265 263 263 263 261 262 262 260 262 262 263 262 263 262 261 262 262 262 262 262 261 260 260 260 258 258 259 260 260 261 262 259 260 260 261 261 260 258 257 257 257 257 256 256 255 255 255 255 256 255 255 254 254 253 254 254 253 252 251 255 258 258 258 257 257
Wind_Speed
2 2 2 2 4 6 6 6 5 2 5 4 4 3 7 6 5 4 3 9 6 5 4 6 7 9 10 10 10 8 7 8 9 8 7 6 6 6 5 5 5 4 3 3 2 4 4 4 5 4 4 4 5 6 6 7 8 8 8 8 9 7 7 7 7 6 6 6 5 6 6 7 6 7 7 7 7 8 8 10 10 10 10 11 12 11
1 1 3 4 3 6 2 7 0 2 3 4 4 4 4 2 3 1 1 2 4 5 1 5 7 7 8 9 10 10 9 10 10 10 8 7 6 5 7 7 6 5 3 2 3 3 3 3 3 3 4 5 5 6 6 7 7 7 7 8 7 7 7 8 6 5 4 4 3 4 5 4 5 6 7 7 7 8 7 9 10 10 10 11 12 11
1 4 2 5 7 4 1 6 5 3 3 4 3 6 4 2 3 3 2 0 1 2 3 6 6 7 9 9 8 11 10 7 7 8 8 8 6 5 6 7 7 6 6 4 3 3 4 4 4 4 4 4 4 4 6 5 7 7 7 7 6 6 7 7 7 6 5 4 3 3 5 6 4 6 6 6 7 7 7 8 9 10 10 11 11 12
2 3 5 6 5 2 2 3 4 3 1 1 2 3 4 2 4 2 1 1 2 2 1 5 5 3 4 3 5 6 8 6 4 3 5 8 9 8 7 6 7 7 7 7 6 4 4 4 5 5 4 4 4 4 4 5 6 6 6 6 6 6 6 6 7 7 6 7 7 5 4 6 7 6 6 6 7 7 8 9 9 9 9 10 10 12
1 1 4 4 2 2 3 3 2 1 3 3 4 3 4 2 2 2 3 1 2 2 0 4 2 3 8 5 5 8 7 5 4 4 2 2 5 6 6 6 7 7 7 6 6 5 4 5 4 4 5 4 3 4 4 4 5 4 6 5 6 5 6 6 7 7 6 6 6 7 7 5 5 5 6 6 7 8 8 7 8 9 9 9 10 10
2 2 2 2 2 1 2 3 2 2 3 3 5 7 2 5 4 5 5 4 1 3 4 7 1 6 9 16 14 7 7 7 6 6 7 6 6 8 9 9 8 7 5 7 7 6 5 4 4 4 4 3 3 4 3 4 5 5 5 5 5 5 5 6 7 7 5 6 6 5 6 6 6 7 8 9 9 8 8 8 6 7 8 8 9 10
1 1 1 1 1 1 2 3 3 3 4 3 1 9 3 4 7 5 5 1 1 4 5 10 7 7 3 7 6 5 6 7 5 8 8 8 8 8 8 8 8 8 8 6 5 6 6 5 4 3 3 3 4 4 3 3 5 6 5 5 5 5 5 5 6 7 5 6 6 6 6 6 6 6 6 5 5 5 6 5 7 6 7 8 8 9
1 2 2 2 0 2 1 3 3 2 3 3 4 5 6 4 5 2 3 3 4 2 0 5 5 5 8 3 4 7 6 6 8 10 11 11 11 10 9 9 8 8 7 8 8 7 5 5 5 5 4 4 4 4 4 4 4 5 4 4 5 5 5 5 5 6 6 6 6 6 6 6 6 6 6 6 6 5 6 7 7 6 6 8 8 8
2 1 3 0 1 2 2 2 5 5 1 0 3 6 4 5 1 2 1 4 2 4 6 6 4 4 6 0 1 8 5 8 13 13 15 15 13 12 11 10 10 10 8 8 8 9 7 7 6 5 5 4 4 3 3 3 3 4 5 5 5 5 5 5 6 6 7 6 6 6 5 6 6 6 5 5 5 5 6 6 6 7 6 7 8 8
2 1 0 1 2 1 2 1 3 5 0 0 2 2 1 3 2 2 1 1 4 3 11 6 7 4 12 4 3 1 4 8 12 19 18 13 13 13 12 10 10 10 9 9 9 9 8 7 7 6 5 5 4 3 3 4 3 4 4 5 4 4 5 5 5 6 6 6 5 6 6 6 5 5 5 5 6 6 5 7 7 6 6 7 7 8
1 1 3 1 0 1 2 1 1 2 1 2 2 0 1 1 1 1 0 1 2 7 14 5 6 6 7 5 9 10 10 10 11 6 7 11 12 12 12 12 12 11 11 10 10 9 8 7 7 6 6 6 5 3 3 3 2 3 4 4 4 4 4 4 5 5 5 5 5 5 5 5 5 5 5 5 6 6 5 7 7 6 6 6 7 7
0 1 0 1 3 2 0 1 2 1 1 1 0 1 1 3 2 0 1 1 2 10 5 1 6 6 6 4 4 4 0 5 7 9 13 15 16 14 12 11 12 12 11 11 10 10 9 9 8 7 7 7 6 5 5 4 2 3 4 4 4 4 3 4 4 4 5 5 5 4 4 4 5 4 4 5 6 6 6 6 6 5 5 6 6 6
1 3 1 2 2 2 1 2 1 0 1 1 1 2 2 3 4 2 3 5 9 10 0 1 1 5 14 14 4 6 3 2 1 6 13 14 14 14 13 13 12 11 12 11 10 10 10 9 9 9 9 8 7 6 6 5 4 3 4 4 4 4 3 3 4 4 4 4 4 4 4 4 4 5 5 4 5 5 5 5 6 6 6 6 6 7
0 3 1 1 3 3 1 3 3 1 3 2 4 4 3 4 4 6 5 3 3 2 0 2 2 2 4 4 4 6 3 3 4 2 11 14 15 14 13 11 10 11 11 11 11 11 10 10 9 9 9 9 7 7 6 5 4 3 4 4 4 4 3 3 3 4 4 4 4 4 4 4 4 4 5 4 5 4 5 5 5 5 6 6 6 6
3 1 3 4 2 3 0 1 1 0 0 6 1 3 3 3 2 5 5 8 6 2 1 4 4 6 4 3 3 3 3 4 5 4 7 8 10 11 11 10 11 11 11 11 11 11 11 11 11 10 9 8 8 8 6 4 5 4 4 4 4 4 3 3 3 4 4 4 4 3 4 4 4 4 4 5 4 4 4 5 4 5 5 5 5 6
6 3 0 1 1 1 2 1 0 0 2 4 4 1 2 5 2 3 0 2 1 1 2 3 5 2 2 2 1 2 4 2 4 6 8 9 9 11 11 12 12 11 10 10 10 11 11 11 11 10 9 8 8 7 5 5 5 4 4 4 4 4 3 3 3 3 4 4 3 3 3 3 4 4 3 4 4 3 4 4 4 5 5 5 5 4
1 3 1 0 1 2 2 2 0 0 2 2 6 4 1 2 1 2 1 1 1 0 6 3 3 6 1 2 1 3 3 2 1 5 6 8 10 9 10 10 10 10 10 10 11 11 12 11 10 9 9 9 8 7 6 5 5 6 5 5 5 4 3 3 3 3 3 3 3 3 3 3 3 3 3 3 4 3 3 3 4 4 5 4 5 4
1 1 1 0 2 0 1 1 2 2 1 2 2 0 4 2 1 2 3 0 1 8 7 4 7 7 3 9 3 3 4 5 5 5 7 8 10 10 9 9 10 11 10 10 10 11 12 11 11 9 7 8 8 7 7 6 4 4 5 5 5 5 4 3 3 3 3 3 3 3 2 3 2 3 3 3 3 3 3 3 3 3 4 4 5 4
3 3 1 2 2 1 1 0 3 3 1 2 1 1 1 3 3 4 1 5 7 8 4 7 7 9 6 7 4 7 9 11 10 7 9 10 11 10 9 9 9 10 10 11 11 11 11 10 10 9 8 8 8 7 7 6 6 4 4 4 4 5 4 3 3 3 2 2 1 2 2 2 2 2 2 1 2 3 3 3 3 3 4 4 4 4
0 1 1 3 1 0 1 2 3 1 2 3 1 4 2 2 3 2 4 2 2 7 7 10 7 8 7 4 5 11 15 11 10 10 11 10 11 10 9 11 12 12 11 11 11 10 10 10 10 10 10 10 9 8 8 7 5 5 5 4 4 4 4 3 2 3 3 3 2 2 3 1 3 2 2 2 2 3 3 3 3 3 3 4 4 3
1 5 4 1 5 3 1 3 4 2 4 1 1 3 0 1 1 3 3 2 4 3 6 7 10 5 2 1 3 5 10 10 15 14 10 10 10 9 9 10 11 11 11 11 10 10 11 11 10 9 9 8 7 7 7 7 7 6 5 5 5 5 5 4 3 3 3 3 3 3 2 1 2 1 1 1 1 3 2 3 3 2 3 3 4 3
1 1 4 2 0 2 3 2 2 2 2 0 1 7 7 3 3 3 8 3 2 4 4 5 12 7 2 2 2 4 1 7 9 9 10 9 10 10 9 10 11 11 10 10 10 10 11 10 10 9 9 8 8 8 8 7 7 6 6 6 6 5 4 4 4 3 3 3 2 2 2 0 1 1 1 1 0 3 1 2 2 3 3 3 3 3
1 1 0 5 2 1 3 3 1 2 1 1 0 1 4 1 2 3 6 4 1 4 1 4 6 13 3 1 3 3 5 1 8 8 8 8 10 10 9 10 10 10 10 11 10 10 10 10 11 11 11 11 11 9 9 8 7 7 6 6 5 5 5 5 4 4 3 3 3 2 2 1 1 1 1 1 0 2 1 2 2 2 2 3 2 3
1 0 1 4 1 1 2 2 1 5 0 0 4 1 0 3 3 4 3 1 0 1 2 5 7 10 1 1 2 4 3 5 4 6 8 7 8 9 9 10 11 10 9 9 9 9 10 9 10 10 11 11 10 9 10 8 7 7 7 6 6 6 5 5 4 4 3 3 3 3 1 2 1 2 0 1 0 1 1 1 1 2 2 2 3 3
2 3 4 1 2 1 1 1 1 1 1 2 1 2 4 1 1 1 2 2 1 7 10 4 11 13 1 2 1 2 2 3 2 4 8 9 8 9 9 9 9 10 10 11 11 11 11 11 12 11 11 10 10 9 9 9 8 8 8 7 7 6 6 5 5 5 4 3 4 3 3 2 3 2 0 0 0 0 1 1 1 2 2 2 3 3
1 1 4 4 6 5 4 3 3 3 4 2 2 0 0 8 7 2 3 4 5 10 12 8 11 11 3 2 1 1 1 2 2 2 4 5 7 9 8 9 10 11 11 11 11 11 13 12 11 10 10 10 10 10 10 9 9 8 8 8 6 7 7 6 5 5 4 5 4 4 4 3 2 3 2 1 0 0 0 0 1 1 2 2 2 3
1 0 1 4 4 8 3 1 0 1 2 2 1 3 3 1 1 2 2 1 14 9 5 11 17 16 6 2 4 4 5 5 4 3 7 7 6 7 7 8 9 10 11 12 12 10 9 10 13 12 11 10 10 10 9 10 9 8 8 8 7 7 7 7 6 5 5 5 5 4 5 4 3 3 2 2 1 0 0 0 0 1 1 2 2 2
0 1 4 3 8 4 2 4 0 1 1 3 1 3 5 5 5 6 11 16 6 3 14 17 10 9 20 10 6 7 6 5 5 6 6 6 6 8 8 7 8 9 9 10 11 12 14 12 11 12 12 11 11 10 9 9 9 10 10 10 8 8 7 7 7 7 6 5 5 4 4 5 4 3 3 2 1 1 0 0 1 0 1 1 2 2
0 2 4 3 6 2 1 1 1 0 3 3 2 2 3 7 7 11 14 15 5 9 18 6 4 9 15 5 10 12 13 14 14 12 7 5 4 5 7 9 11 11 11 12 13 12 13 13 13 13 12 12 11 11 10 9 9 8 8 8 8 8 8 8 8 7 7 6 6 5 5 4 3 3 3 2 3 2 2 1 1 1 1 1 2 2
1 4 1 1 5 3 1 2 2 4 2 3 7 8 8 6 11 14 14 10 11 15 17 18 12 12 15 2 3 3 6 6 4 4 5 6 9 9 9 10 12 12 13 13 13 13 12 12 12 12 12 11 12 12 11 10 10 10 10 9 9 9 8 8 8 8 7 7 6 5 5 5 4 4 3 4 3 3 3 2 1 1 2 2 2 2
3 2 6 1 1 4 1 0 2 4 2 6 8 7 9 9 9 11 9 13 11 14 21 19 17 21 22 4 4 3 6 5 5 7 11 11 8 10 12 12 12 13 13 12 12 12 12 12 11 12 12 12 13 13 12 11 10 9 9 9 10 10 9 8 8 8 8 8 6 6 5 5 5 5 5 4 4 3 3 2 2 1 2 2 2 2
1 2 2 1 2 3 1 1 3 3 5 6 12 11 11 10 9 11 11 15 10 19 16 8 14 20 12 4 7 7 7 10 12 11 9 8 10 10 12 12 12 13 12 13 12 12 12 13 13 13 14 13 13 12 11 10 10 10 10 10 10 9 9 9 8 8 8 7 6 6 6 6 5 5 5 4 4 4 3 2 2 2 2 2 2 2
4 3 2 1 1 4 1 0 2 2 4 9 13 18 21 19 19 12 12 10 15 18 10 13 19 15 6 4 7 9 10 10 9 9 9 8 9 12 13 13 13 12 12 11 12 13 13 13 13 13 12 11 12 12 12 11 10 11 10 10 10 9 9 9 9 8 7 7 7 7 7 6 6 6 5 5 4 3 3 3 3 3 3 3 2 1
2 3 2 3 2 1 3 2 1 3 7 11 2 0 5 13 16 17 16 18 20 12 14 14 15 4 1 4 7 6 8 9 10 9 10 10 10 10 11 10 10 9 9 10 11 11 11 10 9 10 11 11 11 12 11 11 11 10 9 9 8 10 9 9 8 8 8 7 7 7 7 7 6 6 5 5 4 4 3 3 4 3 2 1 1 3
5 4 3 0 1 1 0 0 3 7 13 2 3 3 2 3 6 15 18 14 12 12 18 19 19 15 9 4 4 3 5 6 6 7 6 6 8 9 12 11 10 10 11 11 12 11 11 11 10 9 9 9 10 9 9 8 8 7 8 9 9 9 9 9 8 8 8 8 7 7 7 7 6 6 5 5 5 4 3 4 3 3 3 3 3 2
5 5 2 1 1 1 1 2 1 9 1 3 5 4 2 1 1 1 8 15 16 15 16 18 20 18 15 13 8 1 2 1 1 1 2 5 7 8 8 9 11 12 12 11 11 12 12 12 12 12 11 8 9 9 10 10 9 9 9 8 9 8 9 8 8 8 7 7 7 8 7 7 6 6 5 5 5 5 5 5 4 4 3 2 2 2
4 2 2 2 3 4 4 6 11 8 15 13 1 2 5 3 5 5 6 9 8 14 15 16 16 15 14 8 6 2 2 1 2 6 5 6 5 5 9 11 10 9 9 8 10 10 10 9 9 9 8 8 9 9 9 8 8 9 8 8 8 8 8 8 8 8 8 8 8 8 7 7 7 6 6 5 6 5 5 5 4 3 3 2 3 3
1 5 2 4 4 7 4 5 4 3 5 5 2 2 3 1 1 1 2 10 4 10 12 14 15 13 6 4 4 5 4 2 7 8 6 10 10 9 4 3 4 6 7 7 6 6 7 7 7 8 10 9 8 9 7 8 9 9 9 8 7 8 8 8 9 8 8 8 8 8 7 7 7 7 6 6 7 6 5 5 4 3 3 4 3 4
2 1 0 3 2 2 2 4 4 5 8 2 2 3 0 1 1 1 1 9 2 4 2 10 9 6 4 5 6 5 4 2 8 3 5 3 5 4 4 2 3 3 5 6 8 7 6 6 8 8 9 9 8 7 7 8 9 9 9 8 8 8 9 9 8 8 9 9 7 7 7 7 7 7 7 7 6 6 5 4 4 3 3 3 3 3
1 0 0 2 4 4 3 3 8 4 7 2 4 1 3 2 3 1 5 5 2 3 4 1 3 4 4 5 8 6 7 6 5 1 2 2 3 3 3 5 5 5 5 5 5 5 6 7 8 6 8 8 8 7 8 8 8 8 9 8 7 8 10 9 9 9 7 6 6 7 7 6 7 7 7 7 6 5 5 4 3 3 3 3 4 4
2 2 5 11 5 6 8 7 4 7 5 4 7 5 4 3 1 2 11 4 0 2 2 2 1 2 7 6 6 6 6 3 1 2 1 2 5 4 4 4 4 4 5 5 4 5 6 5 7 9 8 7 7 6 7 7 8 8 7 7 7 11 10 8 6 6 7 6 7 7 7 6 7 7 6 6 6 5 4 4 4 4 4 4 4 3
1 1 2 2 7 9 6 7 9 8 9 7 1 9 5 3 2 11 2 0 0 1 0 1 0 2 5 8 6 3 2 2 4 4 3 3 4 4 4 4 5 5 4 4 5 4 5 5 4 4 3 4 6 7 7 8 8 7 7 7 10 11 5 6 7 6 6 7 8 7 7 7 6 6 6 5 5 5 5 4 4 4 4 3 3 4
11 9 7 8 4 2 3 5 3 6 5 8 11 3 0 3 6 1 0 1 3 2 0 0 0 1 5 4 4 3 3 2 3 4 3 3 4 5 5 5 6 6 5 4 2 1 5 5 5 5 6 4 5 6 6 7 8 7 6 9 11 6 6 6 6 7 7 7 7 7 8 7 7 7 6 5 6 6 6 5 4 4 4 4 3 4
6 3 3 5 6 6 7 7 10 10 2 9 15 7 8 10 3 4 1 0 1 2 1 1 1 2 3 4 5 4 4 4 1 3 2 2 3 3 3 2 2 3 2 2 3 6 5 5 4 4 4 4 5 5 6 9 8 7 8 13 5 5 5 6 6 6 6 6 7 7 6 6 7 7 5 6 6 5 6 5 5 5 4 4 4 5
12 8 4 7 6 8 9 11 4 1 6 10 8 1 2 4 2 3 2 1 0 1 1 1 0 3 3 3 4 5 3 5 5 5 5 5 4 5 6 6 7 7 8 8 7 5 5 8 8 6 5 5 5 5 6 6 9 8 11 8 6 7 8 7 6 7 7 7 7 7 6 6 6 7 6 6 7 6 6 5 5 5 4 5 5 5
3 2 0 1 5 5 8 6 1 0 2 7 8 2 1 0 0 2 3 1 1 1 0 1 1 1 1 1 4 3 6 5 5 5 4 4 5 4 4 3 3 3 3 3 3 6 6 4 3 5 6 5 6 7 6 7 8 9 12 5 8 7 7 7 7 7 8 7 6 7 6 7 6 6 6 6 6 7 6 7 7 7 5 5 6 6
4 3 1 3 2 3 6 2 10 11 5 5 8 8 6 4 4 4 4 5 3 1 0 1 2 0 0 1 2 3 4 3 5 5 5 4 5 5 6 6 6 7 7 8 7 6 5 5 5 6 7 8 7 8 8 8 9 12 6 5 6 7 7 8 8 8 7 8 7 6 7 8 7 6 6 5 5 6 6 6 6 6 6 6 6 6
3 4 3 7 3 6 7 1 4 1 1 4 8 8 10 10 7 6 7 4 4 2 3 3 2 1 1 2 3 2 2 1 4 5 5 5 5 5 5 6 6 5 6 4 4 6 5 6 7 8 7 10 9 9 9 9 11 11 7 4 6 6 7 8 9 9 9 9 7 7 7 8 9 9 7 7 7 7 6 6 6 8 9 9 9 8
4 7 5 5 6 7 9 14 17 8 5 8 8 8 9 9 7 6 6 6 5 5 4 3 3 4 4 5 2 3 4 4 3 4 5 4 4 4 5 5 4 4 2 4 5 6 8 6 7 8 7 10 6 6 8 9 10 8 8 7 5 7 8 9 9 8 7 7 7 8 7 7 7 8 8 7 7 8 8 9 9 9 8 7 6 7
7 6 2 3 2 5 10 12 3 2 7 4 7 12 11 10 7 6 4 5 6 7 6 6 5 4 3 3 3 4 6 6 5 2 4 4 3 3 3 3 3 3 2 2 4 5 5 6 6 7 8 10 4 5 7 8 9 8 7 6 6 7 9 9 8 7 8 7 8 7 7 7 7 7 7 7 8 7 7 9 12 9 8 8 10 15
10 10 8 7 6 10 7 9 7 8 5 1 3 3 4 4 5 6 7 7 7 6 5 5 5 5 5 6 4 4 5 5 5 2 4 4 4 2 2 2 3 3 4 2 3 4 5 6 6 6 8 9 4 5 7 7 8 7 6 7 7 9 10 8 8 8 8 7 8 9 9 8 7 8 7 7 7 7 7 6 8 16 18 14 11 13
Wind_Direction
6 185 188 217 213 197 224 249 272 19 359 334 336 226 219 240 59 13 70 146 163 163 181 185 128 159 169 172 170 174 180 194 170 168 173 177 169 167 160 153 142 123 108 104 87 48 33 23 19 20 20 41 37 26 26 39 42 39 35 33 34 20 18 18 15 17 20 21 15 23 31 39 28 33 34 33 30 33 33 28 27 23 22 21 17 17
9 316 226 227 20 2 325 236 182 355 18 350 315 343 304 241 106 40 112 163 215 205 142 100 123 170 177 174 182 176 186 197 183 178 180 176 178 171 168 158 152 142 116 123 93 79 50 42 31 25 38 30 35 25 27 35 40 39 35 40 33 22 20 15 15 12 11 22 26 30 25 35 35 33 31 28 29 28 28 32 28 25 22 21 22 15
144 224 38 2 342 343 342 10 34 355 350 353 342 311 320 355 106 66 43 9 331 40 139 159 168 190 185 179 175 181 191 195 195 190 179 165 165 174 172 165 154 149 158 142 115 103 91 71 48 60 39 36 31 33 28 30 36 38 38 37 33 26 21 13 5 15 8 359 21 48 55 36 33 35 37 37 28 27 30 29 32 27 22 22 23 17
207 193 11 338 316 298 334 354 7 328 300 297 308 300 269 180 139 233 302 140 279 94 165 183 200 194 159 162 186 200 191 195 155 164 172 168 174 178 181 171 161 164 165 159 151 131 106 80 80 61 62 49 35 27 32 24 36 37 38 40 37 28 22 14 6 15 7 10 12 23 52 73 53 32 30 30 25 30 27 27 28 30 24 22 24 20
54 24 334 327 319 345 304 316 303 347 287 220 231 276 276 336 8 67 180 97 356 31 40 139 277 235 186 175 218 202 198 158 161 139 132 154 173 173 164 168 175 175 168 158 150 143 121 108 84 84 81 67 47 45 35 33 36 40 40 39 44 34 24 16 8 5 15 16 18 21 23 30 46 45 33 27 28 26 23 21 24 27 23 23 24 22
134 6 337 268 5 5 287 264 224 255 273 263 211 210 216 118 99 85 107 112 86 280 199 166 284 250 178 199 202 158 175 198 178 181 195 187 181 169 174 176 173 172 162 163 156 146 131 122 120 102 84 83 73 55 47 44 45 48 39 41 40 44 28 22 12 6 22 25 29 32 37 32 32 31 26 23 18 13 16 15 11 22 26 24 26 25
68 5 358 10 292 350 257 255 254 176 253 276 283 357 287 96 124 140 168 202 245 255 210 182 201 270 75 222 187 161 180 197 178 200 206 198 196 191 184 177 173 167 160 143 137 143 136 134 122 107 92 86 86 75 60 47 58 51 53 44 45 40 39 23 19 12 24 29 29 32 45 46 37 43 34 27 18 19 15 5 16 17 22 25 26 24
2 50 344 13 70 227 230 229 309 282 198 237 350 333 345 137 132 178 204 214 273 103 31 179 193 260 275 222 130 149 173 203 206 209 209 206 197 196 189 180 172 169 163 154 155 152 145 140 132 120 110 102 94 79 66 67 47 58 55 55 42 38 41 31 31 22 25 43 32 33 34 44 40 41 34 21 16 14 19 10 16 12 21 23 21 25
307 37 12 338 255 245 220 15 315 334 181 313 325 356 22 350 351 212 177 262 245 300 262 204 234 269 250 176 70 142 167 217 221 211 212 204 195 190 189 180 172 171 165 160 160 158 154 147 135 133 125 121 97 77 87 65 69 64 65 59 52 47 35 32 35 36 27 40 46 43 38 41 35 34 34 26 20 15 17 15 10 15 16 18 19 23
6 124 79 280 323 218 42 289 5 332 91 284 299 280 35 15 352 35 287 229 271 258 257 223 172 226 271 131 164 189 250 240 226 218 213 195 189 184 181 172 170 166 161 163 159 154 153 143 139 139 133 118 116 113 107 99 86 83 64 67 64 49 43 37 33 41 36 35 42 48 42 45 35 35 20 26 19 15 18 15 8 13 8 15 15 16
201 240 248 26 301 73 317 341 313 15 18 258 302 78 295 64 330 329 43 315 312 244 250 214 188 184 284 186 191 168 212 209 213 219 191 187 183 182 179 169 167 164 163 160 158 153 145 141 144 149 145 137 131 140 116 104 97 92 94 81 72 67 56 45 44 42 46 37 40 49 49 47 41 29 38 25 18 19 9 22 6 8 5 12 10 14
209 146 233 146 88 285 62 293 212 229 323 355 162 205 159 337 89 268 280 246 210 251 255 200 194 185 218 262 181 194 82 176 179 187 185 186 185 177 171 168 164 164 161 157 153 151 150 149 161 156 153 152 151 141 138 127 108 105 105 96 87 78 62 60 55 53 50 46 41 40 48 57 48 38 38 31 25 16 5 20 2 2 1 11 6 10
238 201 113 64 230 200 198 249 199 174 201 65 284 256 155 244 106 266 182 208 209 240 204 14 166 214 227 252 175 165 133 34 139 189 183 176 172 171 169 165 163 159 158 158 156 154 161 165 167 165 163 157 161 155 147 139 125 115 104 104 97 82 82 72 74 67 55 53 44 38 39 36 50 48 34 41 27 18 7 7 4 4 3 6 1 10
290 16 56 150 105 208 208 167 188 1 194 202 191 186 164 222 212 239 215 219 254 236 329 178 279 255 300 316 62 116 54 15 2 315 164 166 167 166 161 157 156 161 160 161 162 164 166 168 169 169 165 164 159 154 147 146 139 133 121 110 104 94 85 93 76 76 73 55 49 47 34 34 36 37 45 28 32 13 7 5 4 4 4 8 356 4
276 259 226 173 222 30 6 65 35 101 350 210 234 203 234 223 222 246 216 224 232 247 115 238 84 239 145 234 44 83 65 38 345 39 110 127 142 144 144 147 153 162 167 166 167 167 166 169 170 170 168 167 155 155 153 146 142 137 134 127 120 115 94 89 87 80 78 66 53 46 48 36 30 41 35 26 34 3 17 354 10 2 5 7 357 356
215 238 310 42 266 298 143 43 22 270 271 237 216 273 291 245 23 208 358 61 317 38 322 246 212 299 228 59 130 60 68 32 36 83 111 122 128 139 148 159 167 169 168 168 163 164 168 168 170 169 169 160 154 152 157 152 146 134 128 122 125 122 113 97 98 92 90 88 73 59 49 44 50 43 31 39 16 7 20 357 10 6 355 8 354 346
57 250 22 199 1 64 50 352 157 165 176 252 143 219 247 11 72 323 324 201 111 71 246 206 257 273 115 282 145 134 90 139 127 123 126 137 139 147 160 163 166 169 168 169 170 166 168 169 171 170 165 157 153 157 154 162 152 141 139 138 135 124 110 109 105 108 106 102 95 84 59 52 50 48 43 40 1 14 15 4 13 4 355 2 347 355
165 283 283 221 230 159 341 142 271 331 228 25 217 231 315 246 55 126 258 299 195 254 260 175 225 249 128 274 104 166 177 178 190 173 154 151 154 162 172 166 168 170 170 168 169 169 170 170 168 165 159 154 156 157 151 142 129 141 145 146 143 138 135 130 109 103 113 119 109 94 77 61 66 55 42 31 19 355 29 359 17 358 358 359 343 0
95 306 148 286 11 203 234 284 294 206 124 211 245 328 93 238 264 198 223 237 246 241 268 247 263 265 251 254 101 224 199 200 187 180 164 167 173 173 169 167 163 164 169 171 173 171 170 167 168 162 159 156 157 145 141 141 143 147 129 143 135 129 127 131 135 128 102 101 97 104 97 85 44 70 36 30 33 0 24 4 18 354 4 345 342 4
122 192 309 279 160 345 273 130 242 170 307 215 269 330 192 31 277 286 208 319 305 269 259 268 245 255 224 275 202 207 203 192 172 178 192 178 177 176 173 170 170 173 174 172 173 171 166 166 168 163 161 159 156 148 149 152 149 152 149 143 130 124 130 139 151 140 129 116 99 100 103 84 87 12 83 354 75 15 5 13 20 353 8 345 344 0
266 119 251 58 292 336 220 172 225 132 182 153 151 251 130 199 223 129 298 157 243 265 254 282 275 246 263 205 325 256 197 185 177 183 183 183 176 179 172 168 172 173 173 174 173 165 166 168 167 162 159 151 147 147 148 157 157 158 145 156 151 151 159 149 154 136 152 121 148 113 98 98 87 32 56 347 56 39 357 20 11 348 3 350 325 15
204 161 209 117 10 216 218 340 62 72 27 122 200 227 203 188 236 251 261 205 187 225 245 252 259 282 223 32 274 348 142 161 175 170 176 178 174 176 171 170 171 172 173 173 170 164 167 168 166 158 153 150 152 158 159 161 155 163 157 168 155 157 163 157 158 153 150 134 117 136 114 121 115 97 312 44 6 49 11 13 23 332 25 333 339 7
155 358 342 243 207 219 98 98 33 41 339 184 171 245 60 287 240 231 254 238 103 238 292 255 303 262 73 335 353 13 345 105 157 164 170 168 170 174 169 168 169 171 171 170 166 166 167 169 167 163 161 163 165 166 165 166 166 166 164 162 164 161 177 155 160 146 159 153 159 152 151 145 121 81 299 44 16 51 18 8 2 350 23 330 346 358
267 169 253 272 95 70 117 127 46 25 299 274 221 227 142 213 221 235 252 332 43 285 262 254 232 267 176 345 352 9 316 327 150 157 157 154 165 171 167 166 168 166 168 162 163 165 169 166 163 163 165 167 169 168 170 170 167 165 168 164 167 172 170 147 150 163 153 166 154 162 148 165 152 114 289 53 41 56 39 358 354 359 8 333 356 347
105 249 159 273 297 313 325 270 323 30 22 219 236 187 210 168 70 143 118 264 268 222 245 212 249 255 76 297 359 348 350 329 112 131 148 154 166 172 170 169 168 163 162 166 170 171 167 166 172 174 170 171 171 170 172 173 172 171 171 166 174 172 161 158 167 165 171 177 164 185 172 179 171 156 156 137 5 108 36 359 13 347 360 341 353 347
143 293 142 175 218 244 253 264 229 208 222 216 254 115 295 187 202 99 271 224 249 245 228 239 261 256 322 284 264 160 275 300 290 144 153 159 167 172 170 170 166 165 171 173 172 172 175 174 173 172 174 174 177 174 173 175 174 175 170 173 173 169 162 169 170 166 182 171 182 187 175 186 177 184 156 187 145 91 28 358 7 355 346 346 347 338
230 10 207 229 208 237 222 134 209 132 310 189 253 180 213 174 243 227 0 292 230 257 273 240 239 260 278 237 253 213 218 218 224 210 176 182 179 172 168 170 170 172 175 177 177 174 170 175 180 177 175 179 177 176 175 174 175 175 174 173 175 171 167 170 170 177 178 187 176 197 177 192 179 170 172 164 141 78 222 279 27 348 322 334 340 305
5 307 269 274 251 245 142 188 116 311 206 286 169 236 198 177 182 185 198 230 241 345 267 248 240 248 259 239 218 217 213 208 217 222 197 188 188 175 173 167 167 172 179 177 176 178 182 181 177 177 178 177 179 176 174 175 177 177 177 177 175 171 168 175 172 180 180 188 183 192 192 177 172 163 178 154 174 199 223 201 231 295 304 312 309 308
151 222 295 78 276 97 237 137 92 71 225 239 264 290 244 192 182 198 226 239 234 230 246 265 126 234 258 262 215 204 191 195 201 200 194 179 160 159 167 174 182 184 183 182 185 183 182 183 181 179 178 179 175 176 175 174 176 174 177 174 174 173 177 174 171 182 182 185 188 194 186 168 159 170 163 183 192 209 199 192 219 236 266 280 279 302
78 258 220 167 293 314 243 189 160 196 254 248 240 239 235 238 215 212 234 232 227 243 254 264 267 262 256 209 82 205 198 199 193 161 157 177 193 178 179 185 189 189 188 188 188 186 186 184 180 180 178 178 179 177 177 177 178 179 177 177 175 177 180 170 179 181 183 190 187 190 175 162 168 168 188 182 201 196 198 198 210 221 236 251 260 265
134 268 103 181 345 271 2 333 220 230 240 265 254 236 236 238 260 244 241 239 233 259 255 261 271 271 261 234 203 173 158 150 160 171 188 196 188 187 190 194 194 194 194 190 187 186 185 183 181 179 180 182 180 180 179 181 180 176 179 178 176 180 179 174 182 183 187 189 187 183 167 167 176 180 188 196 189 197 187 204 208 211 240 241 248 250
116 243 65 136 352 280 303 293 255 238 244 260 277 258 233 220 234 234 221 226 192 231 240 247 256 252 271 169 202 166 167 175 187 190 192 196 198 199 199 200 200 198 196 193 189 186 183 184 183 183 185 183 180 179 179 180 178 177 183 179 179 178 174 177 184 186 189 186 184 176 173 175 182 182 192 185 189 187 190 186 210 230 234 238 239 250
190 149 145 143 164 249 289 256 317 336 329 287 254 242 223 217 218 231 235 236 217 221 233 232 240 251 264 189 174 202 187 200 191 187 201 203 201 202 204 205 205 201 199 192 189 189 188 186 186 184 181 180 179 180 184 177 175 185 182 180 180 165 175 180 184 186 187 187 183 178 176 181 184 186 188 190 182 176 176 193 218 226 229 228 231 238
149 202 191 157 196 215 306 322 319 9 285 246 220 269 179 204 211 223 236 225 229 192 226 226 251 272 76 142 187 200 198 207 199 207 194 192 193 203 211 212 210 204 199 196 193 191 188 183 183 183 181 180 180 179 179 176 181 183 177 174 166 169 177 178 185 185 188 185 185 181 178 184 184 187 190 182 169 172 181 209 217 226 225 205 241 232
169 178 214 189 222 270 168 13 349 253 252 257 220 233 295 258 230 218 243 248 242 229 241 256 258 256 241 204 195 221 213 212 201 204 206 195 187 195 204 205 204 201 199 194 190 187 185 183 181 177 174 175 174 170 166 175 172 162 163 167 170 174 174 181 182 185 188 185 185 180 181 184 181 186 188 173 168 173 190 209 224 221 221 218 219 229
175 164 177 272 186 1 84 160 222 236 233 256 204 189 187 355 293 3 285 251 244 235 229 239 249 251 252 252 254 61 113 89 32 316 230 222 196 192 189 201 206 200 199 195 187 183 184 182 181 180 181 168 161 166 170 175 164 160 171 165 172 171 175 177 181 187 185 186 187 184 182 178 179 183 181 170 169 176 201 206 210 211 213 194 218 246
171 189 169 233 152 190 204 193 237 320 320 293 267 246 162 193 174 154 244 282 204 228 221 233 245 246 249 249 238 143 104 81 293 268 234 234 238 206 191 202 201 198 189 188 180 186 182 177 174 173 160 160 164 162 172 165 158 159 159 164 174 167 176 177 186 189 187 191 188 184 181 177 177 180 177 176 178 192 203 204 214 211 188 191 221 236
326 176 231 129 251 170 251 309 324 327 264 288 203 32 194 345 178 266 49 289 234 231 206 217 232 242 246 211 167 126 91 37 284 269 221 216 212 215 210 176 170 176 174 174 165 162 164 163 152 149 150 154 159 164 158 156 155 155 163 170 169 168 180 182 194 189 188 193 190 183 177 176 174 178 178 180 189 197 199 199 203 187 182 183 219 232
337 87 133 152 271 68 227 204 219 216 243 166 168 184 173 95 33 20 78 278 276 324 262 194 229 231 196 167 143 119 92 221 256 269 320 231 207 182 155 98 108 127 142 151 155 149 141 139 137 141 139 144 155 162 150 151 152 155 171 173 175 176 184 195 191 187 193 194 185 177 173 174 172 177 180 185 193 189 196 197 189 184 174 189 200 231
23 337 8 316 241 199 159 227 245 207 258 235 185 196 172 126 98 68 337 280 310 349 344 15 191 197 178 140 138 144 164 216 257 244 308 3 84 78 117 119 100 91 74 74 74 109 115 110 105 117 140 156 167 154 148 150 153 166 174 181 175 183 198 198 192 195 189 178 174 172 172 175 176 179 180 186 189 187 190 182 166 173 170 198 203 221
168 225 196 221 207 234 212 257 309 281 269 174 173 163 148 158 107 330 242 232 253 14 4 45 7 92 130 138 154 169 225 180 158 149 93 73 76 60 60 76 83 93 101 90 93 95 109 121 140 158 166 166 158 148 147 147 154 176 180 175 183 204 204 193 184 182 180 173 170 171 175 175 177 183 184 181 181 179 177 174 178 181 191 203 220 219
197 125 239 179 234 215 218 230 245 277 242 177 182 145 160 94 218 224 247 205 14 37 35 296 91 129 143 163 187 180 143 135 114 95 93 86 119 104 96 103 90 62 43 63 74 103 113 114 113 116 119 141 152 150 151 154 168 183 177 180 205 212 184 178 183 176 171 174 175 175 173 175 179 177 178 173 164 172 182 178 171 186 195 199 202 229
183 156 200 190 205 169 214 234 333 282 293 122 121 84 31 135 232 186 190 281 211 309 190 76 186 143 141 193 196 140 146 124 122 130 125 137 131 148 145 140 148 153 149 127 111 128 139 144 156 171 174 170 158 157 161 158 175 182 188 200 217 184 176 184 174 174 175 174 175 176 179 178 177 177 173 177 173 177 185 183 179 193 186 194 214 228
180 129 188 206 176 157 168 185 209 218 158 164 144 180 207 211 167 185 181 221 204 241 294 151 229 159 174 162 185 157 167 148 153 125 126 109 124 124 132 139 137 143 163 206 173 175 162 167 177 173 174 174 173 168 169 168 181 189 195 220 194 167 176 170 174 168 174 179 181 177 183 181 178 176 171 174 172 178 181 189 184 187 193 190 203 221
194 188 166 179 201 169 199 216 229 224 180 202 198 173 203 184 135 148 112 151 229 230 218 17 153 149 163 170 173 177 170 202 190 189 169 198 172 166 173 188 182 182 186 187 192 181 177 181 187 181 182 184 183 193 183 187 182 193 210 220 161 185 174 174 167 172 184 186 186 188 183 176 177 180 175 178 174 181 186 198 183 195 199 193 210 214
313 226 113 66 241 275 276 226 184 209 227 232 255 210 151 269 153 142 171 216 227 134 131 185 30 35 131 163 150 198 203 197 183 191 201 186 189 202 182 172 192 182 178 170 170 183 190 186 171 169 192 203 195 196 198 201 196 197 224 177 174 181 172 166 173 183 196 193 193 190 175 179 186 183 184 181 185 189 190 188 191 196 204 198 213 214
216 145 155 191 265 89 265 283 216 234 204 222 230 260 266 213 207 174 198 212 213 153 187 63 150 111 104 10 208 204 229 184 190 205 196 204 196 197 189 193 197 188 179 192 198 161 168 174 190 205 204 214 204 196 202 207 215 223 219 170 177 170 170 176 184 194 195 201 198 189 181 187 189 190 191 190 188 191 193 188 190 195 206 205 210 217
290 170 143 224 220 195 234 248 280 247 243 209 199 225 244 247 235 205 208 198 191 176 171 172 137 257 196 228 232 235 271 199 185 208 199 209 214 199 199 206 212 203 216 199 162 173 164 182 201 212 211 226 216 193 201 209 220 225 223 189 169 168 168 184 191 197 204 203 195 194 193 196 195 191 195 198 192 193 199 204 196 200 207 204 206 208
158 125 220 167 194 260 299 288 274 274 267 244 227 223 225 229 233 231 214 210 190 189 206 202 184 197 183 217 198 204 230 260 205 202 205 216 211 212 216 218 216 219 204 181 184 172 198 201 213 224 221 237 219 185 201 218 227 226 213 208 177 164 175 195 201 205 209 202 193 205 198 201 198 202 198 201 205 214 205 197 201 210 224 223 206 204
102 216 196 100 225 262 223 242 171 241 275 268 229 225 229 229 219 228 191 208 212 220 215 213 239 241 237 231 198 190 210 231 235 195 217 216 208 207 214 219 217 210 222 194 172 184 210 214 219 232 236 248 217 189 210 225 230 224 210 193 189 176 191 201 197 204 215 204 203 206 198 201 206 203 205 202 206 211 232 224 217 210 209 228 219 221
187 202 147 193 182 242 236 224 192 212 248 231 191 203 195 198 186 207 216 218 220 216 202 198 234 241 236 246 234 213 221 216 237 218 231 234 236 218 190 185 204 223 222 200 190 220 215 229 229 237 249 250 219 214 223 232 234 227 202 186 190 191 204 196 200 209 216 205 213 206 202 200 205 205 205 209 210 210 216 233 230 228 229 228 222 224